STARLINK-34414

Last updated on Sat Jul 19 2025 00:02:07 GMT+0000 (Coordinated Universal Time)

1 64620U 25137AC 25199.58335648 -.01535060 00000+0 -16361-1 0 9993 2 64620 53.1601 355.2160 0000828 104.0691 308.9427 15.66250474 4756
UTC large
Height (km)
Speed (km/s)
/
Latitude / Longitude
Inclination (degrees)
Orbital Period (minutes)
Azimuth
Elevation
Range (km)
Doppler Factor

Next 0 passes for location: London (51.5072 / 0.1276)

Sorry there are no passes over London.